Location: ??????
(38.0131°N, 23.7723°E)
Time: 17:54:31
(UTC+00:00)

Okean-O - Pass Details

Date: 29 May 2022
Orbit: 638 x 640 km, 98.1° (Epoch: 27 June)

Event Time Altitude Azimuth Distance (km) Brightness Sun altitude
Rises 18:13:35 0° 173° (S) 2,928 5.6 -6.5°
Reaches altitude 10° 18:15:47 10° 176° (S) 2,023 4.8 -6.9°
Maximum altitude 18:20:10 66° 258° (WSW) 700 3.0 -7.6°
Drops below altitude 10° 18:24:35 10° 341° (NNW) 2,037 6.1 -8.3°
Sets 18:26:48 0° 345° (NNW) 2,950 7.0 -8.7°
